Location: Beekmeers
(50.8953°N, 3.6968°E)
Time: 06:44:48
(UTC+00:00)

Cosmos 1862 Rocket - Pass Details

Date: 23 May 2024
Orbit: 601 x 629 km, 82.5° (Epoch: 19 June)

Event Time Altitude Azimuth Distance (km) Brightness Sun altitude
Exits shadow 01:04:20 29° 219° (SW) 1,113 4.3 -16.2°
Maximum altitude 01:06:17 55° 284° (WNW) 733 3.8 -16.1°
Drops below altitude 10° 01:10:34 10° 3° (N) 1,969 7.3 -15.8°
Sets 01:12:51 0° 8° (N) 2,882 8.6 -15.7°
